Flag for U.S.A. Weather past 2 weeks in Metairie, Louisiana, U.S.A.

Now
86 °F

Partly sunny.


Feels Like: 96 °F
Forecast: 79 / 92 °F
Wind: No wind

Location: New Orleans International Airport

Current Time: Aug 21, 2014 at 9:47:46 AM

Latest Report: Aug 21, 2014 at 8:53 AM


Visibility: 10 mi

Pressure: 30.14 "Hg

Humidity: 72%

Dew point: 76 °F

Location of MetairieLocation

Historic Weather in Metairie — Graph

°F

Metairie temperature yesterday

Maximum temperature yesterday: 90 °F (at 11:53 AM)
Minimum temperature yesterday: 78 °F (at 3:53 AM)
Average temperature yesterday: 83 °F

Past Weeks' High & Low Weather Summary

 TemperatureHumidityPressure
High94 °F (Aug 8, 1:53 PM)94% (Aug 11, 2:53 AM)30.14 "Hg (Aug 11, 2:53 AM)
Low74 °F (Aug 12, 3:53 AM)39% (Aug 14, 12:53 PM)29.90 "Hg (Aug 12, 6:53 PM)
Average83 °F72%30.01 "Hg
* Reported Aug 6 8:53 AM — Aug 21 8:53 AM, Metairie, Weather by CustomWeather, © 2014

Note: Actual official high and low records may vary slightly from our data, if they occured in-between our weather recording intervals... More about our weather records

Advertising

Metairie weather history for previous 24 hours

 ConditionsComfort  
Time TempWeatherWind HumidityBarometerVisibility
8:53 AM
Aug 21
86 °FPartly sunny.No wind72%30.14 "Hg10 mi
7:53 AM83 °FPartly sunny.No wind79%30.14 "Hg10 mi
6:53 AM77 °FPassing clouds.No wind90%30.12 "Hg10 mi
5:53 AM77 °FPassing clouds.No wind90%30.11 "Hg10 mi
4:53 AM77 °FPassing clouds.3 mph90%30.10 "Hg10 mi
3:53 AM79 °FPassing clouds.No wind84%30.09 "Hg10 mi
2:53 AM78 °FClear.No wind84%30.08 "Hg10 mi
1:53 AM78 °FClear.5 mph84%30.09 "Hg10 mi
12:53 AM78 °FPassing clouds.No wind82%30.09 "Hg10 mi
11:53 PM
Aug 20
78 °FPassing clouds.5 mph82%30.09 "Hg10 mi
10:53 PM79 °FPassing clouds.No wind77%30.10 "Hg10 mi
9:53 PM79 °FPassing clouds.3 mph79%30.09 "Hg10 mi
8:53 PM80 °FPartly cloudy.7 mph74%30.08 "Hg10 mi
7:53 PM80 °FBroken clouds.No wind81%30.07 "Hg10 mi
6:53 PM82 °FBroken clouds.6 mph74%30.06 "Hg10 mi
5:53 PM84 °FPartly sunny.7 mph70%30.06 "Hg10 mi
4:53 PM84 °FBroken clouds.7 mph70%30.05 "Hg10 mi
3:53 PM85 °FBroken clouds.3 mph68%30.06 "Hg10 mi
2:53 PM85 °FLight rain. Broken clouds.No wind70%30.07 "Hg10 mi
1:53 PM90 °FThunderstorms. Partly sunny.14 mph66%30.07 "Hg10 mi
12:53 PM90 °FBroken clouds.5 mph66%30.08 "Hg10 mi
11:53 AM90 °FBroken clouds.5 mph63%30.09 "Hg10 mi
10:53 AM89 °FBroken clouds.6 mph65%30.09 "Hg10 mi
9:53 AM88 °FBroken clouds.6 mph70%30.08 "Hg10 mi
Weather by CustomWeather, © 2014

See weather overviewHow to use our weather pages